UAL631 KSAN-KLAX

Flight info

Callsign UAL631
Flight time 0h 25m
Altitude 10000
Route CWARD2 SLI
Aircraft A20N/M-SDE2E3FGHIRWXY/LB1

Departure

Time 2026-04-23 01:50
Airport San Diego International Airport (KSAN)

Arrival

Time 2026-04-23 02:15
Airport Los Angeles International Airport (KLAX)
Time Latitude Longitude Altitude Speed Heading
2026-04-23 01:22 32.73378 -117.19857 26 ft 0 kts 179°
2026-04-23 01:41 32.73381 -117.19858 26 ft 1 kts 179°
2026-04-23 01:41 32.73391 -117.19858 30 ft 3 kts 179°
2026-04-23 01:41 32.73408 -117.19858 27 ft 3 kts 179°
2026-04-23 01:41 32.73426 -117.19858 27 ft 3 kts 179°
2026-04-23 01:42 32.73444 -117.19859 27 ft 3 kts 169°
2026-04-23 01:42 32.73461 -117.19865 27 ft 3 kts 155°
2026-04-23 01:42 32.73476 -117.19876 27 ft 3 kts 124°
2026-04-23 01:42 32.73480 -117.19887 27 ft 0 kts 85°
2026-04-23 01:43 32.73480 -117.19886 27 ft 0 kts 85°
2026-04-23 01:43 32.73481 -117.19880 27 ft 2 kts 85°
2026-04-23 01:44 32.73481 -117.19879 27 ft 0 kts 85°
2026-04-23 01:44 32.73478 -117.19870 27 ft 4 kts 105°
2026-04-23 01:45 32.73460 -117.19814 27 ft 10 kts 110°
2026-04-23 01:45 32.73433 -117.19712 31 ft 16 kts 105°
2026-04-23 01:45 32.73400 -117.19570 27 ft 20 kts 105°
2026-04-23 01:45 32.73358 -117.19399 30 ft 24 kts 106°
2026-04-23 01:46 32.73307 -117.19189 25 ft 28 kts 105°
2026-04-23 01:46 32.73260 -117.18993 29 ft 25 kts 105°
2026-04-23 01:46 32.73213 -117.18799 27 ft 25 kts 106°
2026-04-23 01:46 32.73161 -117.18587 28 ft 29 kts 107°
2026-04-23 01:47 32.73102 -117.18342 24 ft 32 kts 105°
2026-04-23 01:47 32.73054 -117.18148 22 ft 15 kts 106°
2026-04-23 01:47 32.73022 -117.18018 21 ft 18 kts 106°
2026-04-23 01:47 32.72985 -117.17863 19 ft 21 kts 106°
2026-04-23 01:48 32.72949 -117.17704 19 ft 13 kts 91°
2026-04-23 01:48 32.72977 -117.17599 24 ft 13 kts 54°
2026-04-23 01:48 32.73032 -117.17635 23 ft 13 kts 287°
2026-04-23 01:48 32.73061 -117.17753 23 ft 16 kts 287°
2026-04-23 01:49 32.73096 -117.17891 20 ft 18 kts 287°
2026-04-23 01:49 32.73106 -117.17936 21 ft 8 kts 285°
2026-04-23 01:49 32.73200 -117.18315 26 ft 88 kts 287°
2026-04-23 01:49 32.73440 -117.19322 158 ft 155 kts 289°
2026-04-23 01:50 32.73780 -117.20703 596 ft 190 kts 289°
2026-04-23 01:50 32.74256 -117.22246 1363 ft 202 kts 300°
2026-04-23 01:50 32.75072 -117.23612 2640 ft 207 kts 308°
2026-04-23 01:50 32.76021 -117.25016 3372 ft 229 kts 308°
2026-04-23 01:51 32.77031 -117.26602 4128 ft 249 kts 306°
2026-04-23 01:51 32.78029 -117.28312 5264 ft 253 kts 303°
2026-04-23 01:51 32.79008 -117.30081 6388 ft 258 kts 302°
2026-04-23 01:51 32.79996 -117.31875 7490 ft 262 kts 305°
2026-04-23 01:52 32.81111 -117.33608 8536 ft 266 kts 306°
2026-04-23 01:52 32.82247 -117.35365 9338 ft 270 kts 306°
2026-04-23 01:52 32.83398 -117.37146 9728 ft 272 kts 305°
2026-04-23 01:52 32.84551 -117.38934 9914 ft 272 kts 305°
2026-04-23 01:53 32.85701 -117.40720 9986 ft 272 kts 305°
2026-04-23 01:53 32.86852 -117.42506 9984 ft 272 kts 305°
2026-04-23 01:53 32.87988 -117.44271 9984 ft 272 kts 305°
2026-04-23 01:53 32.89136 -117.46056 9983 ft 272 kts 305°
2026-04-23 01:54 32.90286 -117.47845 9983 ft 272 kts 305°
2026-04-23 01:54 32.91440 -117.49639 9981 ft 272 kts 305°
2026-04-23 01:54 32.92583 -117.51417 9979 ft 272 kts 305°
2026-04-23 01:54 32.93740 -117.53218 9979 ft 272 kts 305°
2026-04-23 01:55 32.94899 -117.55025 9982 ft 279 kts 305°
2026-04-23 01:55 32.96079 -117.56866 9983 ft 274 kts 305°
2026-04-23 01:55 32.97221 -117.58647 9982 ft 269 kts 305°
2026-04-23 01:55 32.98361 -117.60427 9981 ft 272 kts 305°
2026-04-23 01:56 32.99510 -117.62222 9982 ft 271 kts 305°
2026-04-23 01:56 33.00633 -117.63976 9981 ft 270 kts 305°
2026-04-23 01:56 33.01774 -117.65759 9982 ft 271 kts 305°
2026-04-23 01:56 33.02941 -117.67586 9983 ft 288 kts 305°
2026-04-23 01:57 33.04202 -117.69566 9983 ft 314 kts 305°
2026-04-23 01:57 33.05510 -117.71610 9981 ft 303 kts 306°
2026-04-23 01:57 33.06867 -117.73409 9984 ft 287 kts 314°
2026-04-23 01:57 33.08329 -117.74922 9981 ft 271 kts 317°
2026-04-23 01:58 33.09776 -117.76380 9982 ft 280 kts 316°
2026-04-23 01:58 33.11358 -117.78004 9982 ft 315 kts 316°
2026-04-23 01:58 33.13027 -117.79711 9978 ft 310 kts 317°
2026-04-23 01:58 33.14625 -117.81332 9977 ft 292 kts 317°
2026-04-23 01:59 33.16125 -117.82853 9977 ft 274 kts 316°
2026-04-23 01:59 33.17543 -117.84290 9982 ft 272 kts 317°
2026-04-23 01:59 33.19176 -117.85611 9983 ft 298 kts 328°
2026-04-23 01:59 33.21188 -117.86632 9981 ft 325 kts 339°
2026-04-23 02:00 33.23380 -117.87212 9977 ft 315 kts 345°
2026-04-23 02:00 33.25472 -117.87704 9976 ft 297 kts 344°
2026-04-23 02:00 33.27432 -117.88178 9975 ft 279 kts 344°
2026-04-23 02:00 33.29356 -117.88657 9983 ft 297 kts 343°
2026-04-23 02:01 33.31498 -117.89208 9973 ft 324 kts 344°
2026-04-23 02:01 33.33664 -117.89748 9978 ft 310 kts 344°
2026-04-23 02:01 33.35722 -117.90251 9979 ft 292 kts 344°
2026-04-23 02:01 33.37638 -117.90721 9978 ft 277 kts 343°
2026-04-23 02:02 33.39512 -117.91303 9978 ft 279 kts 338°
2026-04-23 02:02 33.41379 -117.91995 9972 ft 279 kts 338°
2026-04-23 02:02 33.43235 -117.92674 9914 ft 279 kts 338°
2026-04-23 02:02 33.45079 -117.93346 9799 ft 278 kts 339°
2026-04-23 02:03 33.46934 -117.94021 9670 ft 277 kts 339°
2026-04-23 02:03 33.48773 -117.94689 9363 ft 275 kts 339°
2026-04-23 02:03 33.50604 -117.95356 8977 ft 274 kts 339°
2026-04-23 02:03 33.52431 -117.96023 8538 ft 274 kts 339°
2026-04-23 02:04 33.54251 -117.96688 8148 ft 272 kts 340°
2026-04-23 02:04 33.56046 -117.97343 7757 ft 271 kts 340°
2026-04-23 02:04 33.57854 -117.98003 7371 ft 269 kts 340°
2026-04-23 02:04 33.59638 -117.98654 6997 ft 267 kts 341°
2026-04-23 02:05 33.61389 -117.99293 6641 ft 265 kts 341°
2026-04-23 02:05 33.63175 -117.99946 6235 ft 264 kts 341°
2026-04-23 02:05 33.64930 -118.00586 5835 ft 263 kts 341°
2026-04-23 02:05 33.66686 -118.01228 5395 ft 264 kts 341°
2026-04-23 02:06 33.68449 -118.01873 4944 ft 265 kts 341°
2026-04-23 02:06 33.70198 -118.02512 4574 ft 264 kts 342°
2026-04-23 02:06 33.71946 -118.03149 4214 ft 261 kts 342°
2026-04-23 02:06 33.73686 -118.03785 3817 ft 260 kts 342°
2026-04-23 02:07 33.75390 -118.04406 3600 ft 254 kts 342°
2026-04-23 02:07 33.77107 -118.05034 3547 ft 259 kts 343°
2026-04-23 02:07 33.78866 -118.05237 3542 ft 249 kts
2026-04-23 02:07 33.80549 -118.05137 3530 ft 234 kts
2026-04-23 02:08 33.82104 -118.05041 3530 ft 220 kts
2026-04-23 02:08 33.83608 -118.04949 3540 ft 220 kts
2026-04-23 02:08 33.85147 -118.04855 3533 ft 219 kts
2026-04-23 02:08 33.86665 -118.04761 3562 ft 218 kts
2026-04-23 02:09 33.88186 -118.04669 3561 ft 219 kts
2026-04-23 02:09 33.89710 -118.04578 3559 ft 220 kts
2026-04-23 02:09 33.91239 -118.04490 3556 ft 219 kts 358°
2026-04-23 02:09 33.92675 -118.04962 3565 ft 217 kts 325°
2026-04-23 02:10 33.93647 -118.06324 3558 ft 216 kts 292°
2026-04-23 02:10 33.93811 -118.08066 3559 ft 218 kts 259°
2026-04-23 02:10 33.93131 -118.09696 3566 ft 220 kts 232°
2026-04-23 02:10 33.92221 -118.11173 3556 ft 219 kts 245°
2026-04-23 02:11 33.91952 -118.12938 3562 ft 217 kts 278°
2026-04-23 02:11 33.92393 -118.14670 3562 ft 217 kts 291°
2026-04-23 02:11 33.92933 -118.16361 3562 ft 216 kts 291°
2026-04-23 02:11 33.93473 -118.18054 3562 ft 218 kts 291°
2026-04-23 02:12 33.94012 -118.19753 3566 ft 217 kts 291°
2026-04-23 02:12 33.94554 -118.21445 3543 ft 214 kts 291°
2026-04-23 02:12 33.95056 -118.23122 3286 ft 213 kts 282°
2026-04-23 02:12 33.95125 -118.24895 3186 ft 214 kts 266°
2026-04-23 02:13 33.94925 -118.26654 3077 ft 205 kts 262°
2026-04-23 02:13 33.94761 -118.28281 2891 ft 187 kts 264°
2026-04-23 02:13 33.94603 -118.29742 2587 ft 167 kts 265°
2026-04-23 02:13 33.94515 -118.30634 2195 ft 160 kts 264°
2026-04-23 02:14 33.94341 -118.32380 1381 ft 152 kts 264°
2026-04-23 02:14 33.94255 -118.33264 1118 ft 167 kts 264°
2026-04-23 02:14 33.94052 -118.35099 594 ft 159 kts 263°
2026-04-23 02:14 33.93914 -118.36397 429 ft 155 kts 266°
2026-04-23 02:15 33.93734 -118.38348 131 ft 127 kts 263°
2026-04-23 02:15 33.93635 -118.39259 122 ft 82 kts 262°
2026-04-23 02:15 33.93585 -118.39751 125 ft 39 kts 263°
2026-04-23 02:16 33.93568 -118.39922 125 ft 5 kts 264°
2026-04-23 02:16 33.93566 -118.40000 125 ft 14 kts 269°
2026-04-23 02:16 33.93566 -118.40128 124 ft 16 kts 274°
2026-04-23 02:16 33.93592 -118.40266 124 ft 15 kts 291°
2026-04-23 02:17 33.93599 -118.40287 123 ft 2 kts 293°
2026-04-23 02:17 33.93610 -118.40318 124 ft 6 kts 291°
2026-04-23 02:17 33.93625 -118.40377 124 ft 9 kts 279°
2026-04-23 02:17 33.93625 -118.40458 125 ft 11 kts 265°
2026-04-23 02:18 33.93616 -118.40554 125 ft 12 kts 260°
2026-04-23 02:18 33.93603 -118.40665 125 ft 14 kts 262°
2026-04-23 02:18 33.93594 -118.40788 124 ft 15 kts 276°
2026-04-23 02:18 33.93635 -118.40886 125 ft 13 kts 327°
2026-04-23 02:19 33.93736 -118.40907 123 ft 17 kts 353°
2026-04-23 02:19 33.93854 -118.40921 123 ft 14 kts
2026-04-23 02:19 33.93876 -118.40812 125 ft 16 kts 81°
2026-04-23 02:19 33.93894 -118.40656 125 ft 21 kts 83°
2026-04-23 02:20 33.93913 -118.40462 123 ft 25 kts 83°
2026-04-23 02:20 33.93937 -118.40240 122 ft 27 kts 82°
2026-04-23 02:20 33.93960 -118.40017 125 ft 19 kts 81°
2026-04-23 02:20 33.93970 -118.39936 124 ft 2 kts 81°
2026-04-23 02:21 33.93982 -118.39907 125 ft 5 kts 42°
2026-04-23 02:21 33.94033 -118.39903 123 ft 9 kts 355°
2026-04-23 02:21 33.94046 -118.39905 123 ft 0 kts 351°